Погода в Ореле

Хотите узнать прогноз погоды в Ореле? Тогда Вам сюда: Погода в Ореле

Поиск расширенной информации на нашем сайте:

Полезная информация:

Новости сайта



02.01.2020
Опубликован Долгосрочный прогноз погоды по городам России и ближнего зарубежья на январь 2020 года.
Карты: Прогноз на январь и февраль 2020 года, Сравнение прогнозируемой аномалии приземной температуры воздуха на январь 2020 года по разным моделям.




Погода в Ореле - сегодня

Время (UTC), дата Ветер
(°,м/с) 
Видим.   Явления Облачность Т
(°С)
Тd
(°С)
f(%) Тe
(°С)
Pmin
(гПа)
dP
(гПа)
Po
(мм)
O2
(г/м3)
Тmin Tmax R s Состояние
почвы
18 24.01.20 260 (З) 10 км  {ливн. осадки}  10/10 600 м кучево-дожд. 
[Cb calv]
+0.3 -0.6 94 -1  1007.9  -0.8  738  297    +0.3  0.2     
21 24.01.20 260 (З) 3{10}  10 км  слаб. ливневой снег  10/10 600 м кучево-дожд. 
[Cb calv]
+0.5 -0.1 96 -1  1006.6  -1.2  737  296           
00 25.01.20 280 (З) 10 км  {ливн. осадки}  10/10 600 м кучево-дожд. 
[Cb calv]
+0.9 +0.3 96 1006  -0.6  737  296           
03 25.01.20 270 (З) 4000 м  слаб. ливневой снег  10/10 300 м кучево-дожд. 
[Cb calv]
+0.8 +0.3 96 1005.4  -0.6  736  296  -0.4    0.7     
06 25.01.20 270 (З) 4000 м  слаб. ливневой дождь  10/10 300 м кучево-дожд. 
[Cb cap]
+1 +0.3 95 -1  1005.6  0.2  736  295  +0.2    0.7  равномерный
мокрый или
старый снег
100% 
09 25.01.20 260 (З) 10 км  {ливн. осадки}  9/9 600 м кучево-дожд. 
[Cb calv]
+1.8 -0 88 1005.4  0.1  736  295           
12 25.01.20 270 (З) 3{10}  10 км  {ливн. осадки}  10/10 600 м кучево-дожд. 
[Cb calv]
+1.8 -0.2 87 1004.3  -1.1  735  294           
15 25.01.20 270 (З) 10 км    10/10 600 м кучево-дожд. 
[Cb calv]
+1.5 -0.1 89 1004.3  735  295      0.0     
18 25.01.20 290 (З) 4{10}  10 км    8/8 600 м 
[Sc]
+1.9 -0.7 83 1005  0.7  736  294    +2  0.0     
21 25.01.20 300 (СЗ) 2{13}  10 км  {ливн. осадки}  3/3 600 м 
[Sc]
+0.4 -2.7 80 1007.9  2.6  738  297           
00 26.01.20 300 (СЗ) 10 км  {ливн. осадки}  ясно 
-1.1 -2.6 90 -2  1010.4  2.4  740  300           
03 26.01.20 300 (СЗ) 10 км    ясно 
-1.7 -3.8 86 -4  1012.6  2.1  741  301  -1.7    0.5     
06 26.01.20 290 (З) 10 км    ясно 
-2.8 -3.7 94 -4  1015.5  2.7  743  303  -3.3    0.5  равномерный
мокрый или
старый снег
100% 
09 26.01.20 300 (СЗ) 10 км    9/9 300 м 
[St]
-0.4 -3.4 80 -1  1017.3  1.9  745  301           
12 26.01.20 270 (З) 10 км    8/4 300 м средняя, верхняя 
[St|Ac trans|Ci fib]
+0.1 -3.9 74 -2  1017.2  745  300           
15 26.01.20 260 (З) 10 км    10/10 600 м 
[Sc]
+0.1 -2.9 80 -1  1016.7  744  300           
18 26.01.20 260 (З) 10 км    10/10 600 м 
[Sc]
+0.5 -2.7 79 -1  1015.5  -1.1  743  299    +1.1       
21 26.01.20 260 (З) 10 км    10/10 600 м 
[Sc]
+1.2 -2 79 1014.9  -0.6  743  298           
00 27.01.20 270 (З) 10 км    10/10 600 м 
[Sc]
+1.3 -1.6 81 1014.7  0.1  743  298           
03 27.01.20 270 (З) 10 км  {ливн. осадки}  10/10 600 м кучево-дожд. 
[Cb calv]
+0.8 -1.1 87 -1  1014.5  -0.3  743  298  +0.1    0.0     
06 27.01.20 270 (З) 10 км  {ливн. осадки}  10/10 600 м кучево-дожд. 
[Cb calv]
+0.7 -1.1 88 1015.2  0.7  743  299  +0.5    0.0  равномерный
мокрый или
старый снег
100% 
09 27.01.20 280 (З) 10 км    10/10 600 м 
[Sc]
+1.6 -0.8 84 +2  1015.8  0.7  744  298           
12 27.01.20 260 (З) 10 км  в посл. час ливневой снег  10/10 600 м кучево-дожд. 
[Cb calv]
+1.5 -1.1 83 +1  1015.4  -0.4  743  298           
15 27.01.20 220 (ЮЗ) 10 км  слаб. ливневой снег  10/10 600 м кучево-дожд. 
[Cb calv]
+0.4 -0.4 94 +1  1015.6  0.2  744  299      0.0     
18 27.01.20 180 (Ю) 10 км  {ливн. осадки}  10/10 300 м кучево-дожд. 
[Cb calv]
-0 -0.7 95 +1  1015.4  -0.3  743  300    +1.8  0.4     
Время (UTC), дата Ветер
(°,м/с) 
Видим.   Явления Облачность Т
(°С)
Тd
(°С)
f(%) Тe
(°С)
Pmin
(гПа)
dP
(гПа)
Po
(мм)
O2
(г/м3)
Тmin Tmax R s Состояние
почвы

Для получения пояснительной информации подведите курсор к названию столбца.

ПОГОДА в Ореле - архив

Всё, что Вы хотите узнать о погоде в Ореле - удобно и подробно!

Выберите нужную дату (начиная с 1 января 2019* года) и нажмите кнопку "Найти".
Будут отображены архивные сводки погоды по пункту Орел, начиная с указанной даты.


Отображать данные в формате CSV (для использования в таблицах Excel)


Внимание! Наш архив погоды предназначен исключительно для личного некоммерческого использования в познавательных целях. Если Вам необходимы официальные справки о состоянии погоды (для производственных, юридических, коммерческих и т.п. целей), обращайтесь в органы Росгидромета.

*Примечание: данная дата относится к архиву по метеостанциям СССР (Россия, СНГ, Балтия).
Архив по метеостанциям Зарубежной Европы и Азии (кроме Китая) хранится 10 дней, по другим регионам земного шара (Китай, Африка, Америка, Австралия, Океания) - 1 день.

Орел - район местоположения метеостанции


Название, широта, долгота, высота метеостанции:
Орел 52.9°ш. 36°д. 196 м над ур. моря [Российская Федерация]

Дополнительная информация

В oтличие oт бoльшинства пoгoдных сайтoв мы публикуем пoдрoбную метеoинфoрмацию в детальнoм прoфессиoнальнoм фoрмате.

Характеристики температуры и влажнoсти вoздуха измеряются на высoте 2 м в тени вдали oт зданий и деревьев.
Скoрoсть ветра измеряется на высoте 10 м (на урoвне рoста челoвека скoрoсть ветра ниже в 1.5-2 раза). Если метеoстанция нахoдится в гoрoде или в лесу, тo скoрoсть ветра занижена на 2-4 м/с пo сравнению с oткрытым местoм. Скoрoсть ветра над акватoриями крупных рек и oзёр, а также на вершинах хoлмoв на 2-5 м/с выше, чем в oбычных услoвиях.
Атмoсфернoе давление в разных тoчках местнoсти мoжет значительнo oтличаться oт давления на метеoстанции, в зависимoсти oт услoвий рельефа (при пoдъёме на 10 м давление пoнижается примернo на 1 мм рт.ст.).